Location: Unspecified
(0.0000°N, 0.0000°E)
Time: 12:10:53
(UTC+00:00)

STARLINK 1053 - Pass Details

Date: 11 December 2019
Orbit: 450 x 452 km, 53.0° (Epoch: 11 December)

Event Time Altitude Azimuth Distance (km) Brightness Sun altitude
Rises 19:48:06 0° 206° (SSW) 2,446 7.7 -26.2°
Reaches altitude 10° 19:50:17 10° 200° (SSW) 1,573 6.5 -26.7°
Enters shadow 19:51:25 19° 194° (SSW) 1,140 5.6 -27.0°
